TimeEDT,TemperatureF,Dew PointF,Humidity,Sea Level PressureIn,VisibilityMPH,Wind Direction,Wind SpeedMPH,Gust SpeedMPH,PrecipitationIn,Events,Conditions,WindDirDegrees,DateUTC
12:17 AM,47.3,46.4,97,29.89,10.0,East,13.8,-,N/A,,Overcast,100,2013-10-06 04:17:00
12:37 AM,47.5,46.8,97,29.87,10.0,East,12.7,18.4,N/A,,Overcast,90,2013-10-06 04:37:00
12:57 AM,47.7,47.3,99,29.86,10.0,East,11.5,17.3,N/A,,Overcast,100,2013-10-06 04:57:00
1:17 AM,48.2,47.5,97,29.85,10.0,East,11.5,-,N/A,,Overcast,90,2013-10-06 05:17:00
1:37 AM,48.4,47.8,98,29.85,10.0,East,9.2,-,N/A,,Overcast,90,2013-10-06 05:37:00
1:57 AM,49.1,48.4,97,29.84,10.0,East,9.2,-,N/A,,Overcast,90,2013-10-06 05:57:00
2:17 AM,49.1,48.6,98,29.84,10.0,ENE,3.5,-,N/A,,Overcast,70,2013-10-06 06:17:00
2:37 AM,50.0,49.1,97,29.85,10.0,East,3.5,-,N/A,,Overcast,80,2013-10-06 06:37:00
2:57 AM,50.9,50.0,97,29.84,10.0,ESE,9.2,-,N/A,,Overcast,110,2013-10-06 06:57:00
3:17 AM,50.9,50.0,97,29.82,10.0,East,10.4,-,N/A,,Overcast,100,2013-10-06 07:17:00
3:37 AM,51.1,50.2,97,29.80,7.0,East,10.4,17.3,N/A,,Overcast,80,2013-10-06 07:37:00
3:57 AM,51.3,50.4,97,29.79,10.0,East,10.4,-,N/A,,Overcast,100,2013-10-06 07:57:00
4:17 AM,51.4,50.4,96,29.77,10.0,East,16.1,21.9,N/A,,Overcast,90,2013-10-06 08:17:00
4:37 AM,51.8,50.5,95,29.77,10.0,East,11.5,17.3,N/A,,Overcast,100,2013-10-06 08:37:00
4:57 AM,51.8,50.9,97,29.76,10.0,East,11.5,16.1,N/A,,Overcast,100,2013-10-06 08:57:00
5:17 AM,51.8,51.1,97,29.76,10.0,East,10.4,16.1,N/A,,Overcast,100,2013-10-06 09:17:00
5:37 AM,52.0,51.4,98,29.75,10.0,East,9.2,-,N/A,,Overcast,100,2013-10-06 09:37:00
5:57 AM,52.7,52.0,97,29.76,10.0,East,13.8,20.7,N/A,,Overcast,100,2013-10-06 09:57:00
6:17 AM,52.7,52.3,99,29.74,7.0,ESE,12.7,-,N/A,,Overcast,110,2013-10-06 10:17:00
6:37 AM,52.7,52.2,98,29.74,7.0,East,11.5,-,N/A,,Overcast,100,2013-10-06 10:37:00
6:57 AM,52.9,52.7,99,29.73,5.0,ESE,10.4,-,N/A,,Overcast,110,2013-10-06 10:57:00
7:17 AM,53.6,53.2,99,29.73,3.0,ESE,13.8,18.4,N/A,,Overcast,110,2013-10-06 11:17:00
7:36 AM,54.0,53.8,99,29.72,2.0,ESE,15.0,20.7,0.01,Rain,Light Rain,110,2013-10-06 11:36:00
7:57 AM,54.5,54.1,99,29.71,4.0,ESE,11.5,-,0.01,Rain,Light Rain,110,2013-10-06 11:57:00
8:17 AM,54.7,54.5,99,29.71,5.0,ESE,15.0,20.7,N/A,,Overcast,120,2013-10-06 12:17:00
8:37 AM,55.0,54.7,99,29.70,1.8,ESE,12.7,20.7,N/A,,Overcast,110,2013-10-06 12:37:00
8:57 AM,55.2,55.0,99,29.70,1.2,ESE,10.4,25.3,N/A,,Overcast,110,2013-10-06 12:57:00
9:17 AM,55.4,55.0,99,29.69,2.0,ESE,11.5,18.4,N/A,,Overcast,110,2013-10-06 13:17:00
9:37 AM,55.6,55.4,99,29.69,4.0,ESE,13.8,-,N/A,,Overcast,110,2013-10-06 13:37:00
9:57 AM,55.8,55.4,99,29.68,2.5,ESE,12.7,-,N/A,,Overcast,120,2013-10-06 13:57:00
10:17 AM,55.9,55.8,99,29.68,1.5,ESE,10.4,-,N/A,,Overcast,120,2013-10-06 14:17:00
10:37 AM,55.9,55.8,99,29.67,0.8,ESE,9.2,16.1,N/A,,Overcast,110,2013-10-06 14:37:00
10:57 AM,56.3,55.9,99,29.67,0.8,ESE,9.2,-,N/A,Rain,Light Rain,120,2013-10-06 14:57:00
11:17 AM,56.3,56.1,99,29.67,1.0,ESE,8.1,-,0.02,Rain,Rain,120,2013-10-06 15:17:00
11:37 AM,56.7,56.3,99,29.65,4.0,East,5.8,-,0.15,Rain,Light Rain,100,2013-10-06 15:37:00
11:57 AM,56.7,56.3,99,29.66,2.0,East,4.6,-,0.16,Rain,Light Rain,100,2013-10-06 15:57:00
12:17 PM,56.7,56.5,99,29.66,2.5,ESE,5.8,-,0.03,Rain,Heavy Rain,110,2013-10-06 16:17:00
12:37 PM,57.2,56.8,99,29.65,4.0,Calm,Calm,-,0.08,Rain,Rain,0,2013-10-06 16:37:00
12:57 PM,57.4,57.2,99,29.65,3.0,SE,3.5,-,0.14,Rain,Heavy Rain,130,2013-10-06 16:57:00
1:17 PM,57.9,57.4,98,29.66,5.0,SE,3.5,-,0.02,Rain,Light Rain,140,2013-10-06 17:17:00
1:37 PM,58.1,57.7,99,29.65,3.0,SE,3.5,-,0.04,Rain,Rain,130,2013-10-06 17:37:00
1:57 PM,58.3,58.1,99,29.64,5.0,ESE,3.5,-,0.04,Rain,Rain,120,2013-10-06 17:57:00
2:17 PM,58.8,58.5,99,29.63,7.0,SE,5.8,-,0.01,,Drizzle,130,2013-10-06 18:17:00
2:37 PM,59.0,58.5,98,29.63,2.5,SE,3.5,-,0.01,Rain,Light Rain,140,2013-10-06 18:37:00
2:57 PM,59.4,59.2,99,29.62,1.8,SSE,3.5,-,0.01,,Drizzle,160,2013-10-06 18:57:00
3:17 PM,59.7,59.4,99,29.62,5.0,SSE,5.8,-,N/A,Rain,Light Rain,160,2013-10-06 19:17:00
3:37 PM,59.9,59.9,100,29.61,2.0,South,4.6,-,N/A,,Overcast,170,2013-10-06 19:37:00
3:57 PM,60.3,59.7,98,29.60,10.0,South,4.6,-,N/A,Rain,Light Rain,180,2013-10-06 19:57:00
4:17 PM,60.6,59.5,96,29.59,10.0,South,4.6,-,N/A,,Light Drizzle,190,2013-10-06 20:17:00
4:37 PM,60.8,59.4,95,29.59,10.0,South,4.6,-,N/A,,Overcast,170,2013-10-06 20:37:00
4:57 PM,60.1,58.3,94,29.60,10.0,SSW,9.2,-,N/A,,Overcast,200,2013-10-06 20:57:00
5:17 PM,59.0,56.8,93,29.60,10.0,SSW,11.5,-,N/A,,Overcast,200,2013-10-06 21:17:00
5:37 PM,58.6,55.9,91,29.60,10.0,SSW,12.7,-,N/A,,Overcast,200,2013-10-06 21:37:00
5:57 PM,58.1,55.6,91,29.59,10.0,SSW,8.1,-,N/A,,Overcast,200,2013-10-06 21:57:00
6:17 PM,57.6,55.6,93,29.59,10.0,SSW,9.2,-,N/A,,Overcast,210,2013-10-06 22:17:00
6:37 PM,57.4,55.0,92,29.59,10.0,South,9.2,-,N/A,,Mostly Cloudy,190,2013-10-06 22:37:00
6:57 PM,56.8,54.3,91,29.59,10.0,South,6.9,-,N/A,,Scattered Clouds,190,2013-10-06 22:57:00
7:18 PM,55.6,54.0,94,29.60,10.0,SSW,6.9,-,N/A,,Scattered Clouds,210,2013-10-06 23:18:00
7:37 PM,54.7,53.4,96,29.61,10.0,South,6.9,-,N/A,,Clear,190,2013-10-06 23:37:00
7:57 PM,54.1,53.1,96,29.60,10.0,SSW,6.9,-,N/A,,Clear,200,2013-10-06 23:57:00
8:17 PM,53.4,52.5,97,29.60,10.0,SSW,5.8,-,N/A,,Clear,200,2013-10-07 00:17:00
8:37 PM,53.2,52.5,97,29.60,10.0,South,5.8,-,N/A,,Mostly Cloudy,180,2013-10-07 00:37:00
8:57 PM,52.7,51.8,97,29.59,10.0,SSW,4.6,-,N/A,,Scattered Clouds,210,2013-10-07 00:57:00
9:17 PM,53.1,52.0,96,29.59,10.0,SW,8.1,-,N/A,,Mostly Cloudy,220,2013-10-07 01:17:00
9:37 PM,53.2,51.8,95,29.59,10.0,SW,9.2,-,N/A,,Overcast,220,2013-10-07 01:37:00
9:57 PM,53.2,51.8,95,29.59,10.0,WSW,6.9,-,N/A,,Overcast,240,2013-10-07 01:57:00
10:17 PM,53.2,52.5,97,29.59,10.0,WNW,3.5,-,N/A,,Overcast,290,2013-10-07 02:17:00
10:37 PM,53.6,52.9,97,29.59,10.0,West,4.6,-,N/A,,Overcast,260,2013-10-07 02:37:00
10:58 PM,53.6,53.1,98,29.59,5.0,West,4.6,-,N/A,,Overcast,260,2013-10-07 02:58:00
11:17 PM,53.6,52.9,97,29.59,10.0,West,4.6,-,N/A,,Overcast,260,2013-10-07 03:17:00
11:37 PM,53.2,52.7,98,29.59,10.0,West,9.2,-,N/A,,Overcast,280,2013-10-07 03:37:00
11:57 PM,53.2,52.7,98,29.58,7.0,WNW,8.1,-,N/A,,Overcast,300,2013-10-07 03:57:00